Regional Weather Roundup
Issued by NWS

Home | Current Version | Previous Version | Text Only | Print | Product List | Glossary Off
Versions: 1 2 3 4 5 6 7 8 9 10 11 12 13 14 15 16 17 18 19 20 21 22 23 24 25 26 27 28 29 30 31 32 33 34 35 36 37 38 39 40 41 42 43 44 45 46 47 48 49 50

355
ASUS45 KTFX 101210
RWRMT
MONTANA REGIONAL WEATHER ROUNDUP
NATIONAL WEATHER SERVICE GREAT FALLS MT
500 AM MST SAT DEC 10 2016

NOTE: "FAIR" INDICATES FEW OR NO CLOUDS BELOW 12000 FEET WITH NO
SIGNIFICANT WEATHER AND/OR OBSTRUCTIONS TO VISIBILITY.

MTZ001>007-043-101300-
WEST OF THE DIVIDE

CITY           SKY/WX    TMP DP  RH WIND       PRES   REMARKS
KALISPELL      LGT SNOW  10   7  87 CALM      29.85F FOG
MISSOULA       LGT SNOW  16  14  92 CALM      29.83F FOG
BUTTE          CLOUDY    20  18  92 S3        29.73F FOG
MULLAN PASS    LGT SNOW  19  17  92 S3        29.60F VSB 3/4
ANACONDA         N/A     25  21  86 S6        29.73F WCI  18
DEER LODGE       N/A     14  10  85 CALM      29.77F
EUREKA           N/A      7   3  85 CALM      29.92F VSB 1
HAMILTON         N/A     16  12  86 CALM      29.78F
LIBBY            N/A     12   9  85 CALM      29.87F VSB 3/4
PLAINS           N/A     15   8  73 CALM      29.87
RONAN            N/A     12   7  81 CALM      29.86F
THOMPSON FALLS   N/A     16  12  84 E15       29.87F WCI   1
$$

MTZ008-052>055-101300-
SOUTHWEST MONTANA

CITY           SKY/WX    TMP DP  RH WIND       PRES   REMARKS
BOZEMAN        CLOUDY    13   8  81 CALM      29.80F
DILLON         CLOUDY    17  11  77 CALM      29.75F
W YELLOWSTONE  MIX PCPN  27  25  93 SE5       29.80F
THREE FORKS      N/A     12 -23  19 CALM      29.82F
$$

MTZ009-010-012-014-046-048-049-054-101300-
EAST SLOPES AND CENTRAL MONTANA

CITY           SKY/WX    TMP DP  RH WIND       PRES   REMARKS
CUT BANK       CLOUDY     0  -3  87 SE10      29.80F WCI -16
GREAT FALLS    CLOUDY     0  -4  83 W6        29.83F WCI -12
MALMSTROM AFB  CLOUDY     3   1  92 W5        29.86F
HELENA         CLOUDY     8   2  76 E3        29.84F
AUGUSTA        MOCLDY    -2  -6  84 E1        29.75F
BOWMANS CRNR   FLURRIES  -4  -7  87 NE6       29.74F WCI -16
CHOTEAU          N/A     -2  -6  84 MISG      29.81F
CONRAD           N/A      0  -3  87 NE1       29.86F
FAIRFIELD      MOCLDY    -1  -5  82 N2        29.80F
POWER          MOCLDY     0  -4  85 NE3       29.81F
RAYNESFORD     MOCLDY     6   1  79 E9        29.78F WCI  -8
ULM            MOCLDY     0  -3  86 MISG      29.84F
$$

MTZ011-013-016-021-045-047-050-051-101300-
NORTH CENTRAL MONTANA

CITY           SKY/WX    TMP DP  RH WIND       PRES   REMARKS
HAVRE          CLOUDY     4   0  83 E12       29.96F WCI -12
LEWISTOWN      CLOUDY     9   3  77 CALM      29.77F
N BAR RANCH    CLOUDY     9   3  78 CALM      29.79F
CHINOOK          N/A      1  -2  85 E13G20    29.99F WCI -16
DENTON         MOCLDY     5   2  88 MISG      29.79F
FORT BENTON      N/A      7   1  78 MISG      29.92F
GEYSER         MOCLDY     4   1  86 NE1       29.78F
GRASS RANGE    MOCLDY     5   2  87 N1        29.80F
JUDITH GAP     CLOUDY     5   1  81 MISG      29.77F
ROY            FLURRIES   4   2  90 MISG      29.83F
STANFORD       MOCLDY     4   1  88 SE3       29.74F
WINIFRED       MOCLDY     4   2  90 MISG      29.82F
$$

MTZ017>020-022>027-061-062-101300-
NORTHEAST MONTANA

CITY           SKY/WX    TMP DP  RH WIND       PRES   REMARKS
GLASGOW        CLOUDY    -4  -9  79 E17       30.09F WCI -26
JORDAN           N/A      4  -2  76 E12       30.02F WCI -12
SIDNEY         CLOUDY    -9 -13  83 N5        30.22F
WOLF POINT     CLOUDY    -6 -13  71 E12       30.19F WCI -25
PLENTYWOOD       N/A    -11 -17  77 E5        30.21F
POPLAR           N/A     -9 -15  77 E9        30.21F WCI -27
SCOBEY           N/A     -9 -21  55 E6        30.13  WCI -22
$$

MTZ028>42-056>058-101300-
SOUTHCENTRAL AND SOUTHEAST MONTANA

CITY           SKY/WX    TMP DP  RH WIND       PRES   REMARKS
BAKER          FLURRIES  -1  -6  79 SE18      30.07F WCI -22
BILLINGS       LGT SNOW   7   3  84 CALM      29.89F FOG
LIVINGSTON     CLOUDY    11   5  77 SW3       29.79F
MILES CITY     CLOUDY     5   0  79 E7        30.03F WCI  -7
BIG TIMBER     CLOUDY     9   5  85 SE3       29.83F FOG
EKALAKA          N/A      0  -8  68 E20       29.93  WCI -22
FORSYTH          N/A      7   3  85 E8        30.00F WCI  -6
HARLOWTON      CLOUDY     6   2  86 E3        29.82F
LAUREL           N/A      7  -2  66 CALM      29.88F
$$

REGIONAL REPORTS...DAKOTAS

CITY           SKY/WX    TMP DP  RH WIND       PRES   REMARKS
WILLISTON      CLOUDY   -12 -17  78 NE5       30.26F
MINOT          CLOUDY   -18 -23  77 S3        30.35F
DICKINSON      CLOUDY    -9 -14  78 SE12      30.16F WCI -28
BEACH          CLOUDY    -4  -8  84 SE14      30.13F WCI -24
CROSBY           N/A    -18 -24  76 CALM      30.31F
TIOGA            N/A    -22 -26  83 E5        30.26F
WATFORD CITY   CLOUDY   -11 -17  77 E3        30.25F
BISMARCK       CLOUDY   -14 -18  82 E6        30.39F WCI -28
GRAND FORKS    CLOUDY    -4 -10  75 NW3       30.52F
FARGO          CLOUDY    -6 -12  75 SW5       30.52F
BUFFALO SD       N/A      0  -5  79 SE12      30.00F WCI -17
RAPID CITY     CLOUDY     1  -3  83 SE10      30.06F WCI -15
$$

REGIONAL REPORTS...WYOMING/IDAHO/WASHINGTON

CITY           SKY/WX    TMP DP  RH WIND       PRES   REMARKS
GILLETTE       CLOUDY     2  -3  80 S9        29.89F WCI -13
SHERIDAN       CLOUDY    10   4  76 W3        29.89F
BUFFALO WY     CLOUDY     8   1  73 N9        29.81F WCI  -5
CODY           FLURRIES  13   8  81 N6        29.80F WCI   4
YELLOWSTONE LA   N/A     27  24  89 W9        29.80F WCI  18
IDAHO FALLS    LGT RAIN  35  33  92 S18       29.87F WCI  24
SALMON         CLOUDY    19  18  93 CALM      29.84F
BOISE          CLOUDY    32  31  96 E3        29.87F FOG
SPOKANE        SNOW      19  16  88 N5        29.78S VSB 1/2
$$

REGIONAL REPORTS...ALBERTA

CITY           SKY/WX    TMP DP  RH WIND       PRES   REMARKS
EDMONTON       CLOUDY   -15 -22  70 E6        30.06F WCI -29
CALGARY        CRYSTALS  -9 -15  77 S7        29.84F WCI -24
LETHBRIDGE     PTCLDY    -2  -6  84 E7        29.88F WCI -16
MEDICINE HAT   LGT SNOW  -4  -8  84 N3        30.00F
WATERTON GATE    N/A     -8 -13  77 N1          N/A
CARDSTON         N/A     -9 -15  77 NW1         N/A
MILK RIVER       N/A      3   0  85 SE7         N/A  WCI  -9
ONEFOUR          N/A      1  -2  85 E12         N/A  WCI -15
$$

REGIONAL REPORTS...SASKATCHEWAN

CITY           SKY/WX    TMP DP  RH WIND       PRES   REMARKS
SWIFT CURRENT  CLOUDY    -4  -9  77 SE13G18   30.04F WCI -23
REGINA         PTCLDY   -17 -20  83 SE10      30.27F WCI -37
SASKATOON      CRYSTALS -11 -17  77 E5        30.28F
CYPRESS HILLS    N/A     -6 -11  77 SE7         N/A  WCI -20
VAL MARIE        N/A     -2  -8  78 E10         N/A  WCI -19
ROCKGLEN         N/A     -9 -15  77 S12         N/A  WCI -29
ASSINIBOIA       N/A    -17 -22  76 S5          N/A
$$




USA.gov is the U.S. government's official web portal to all federal, state and local government web resources and services.